Location: Allison Elementary School
(34.0784°N, 117.7317°W)
Time: 08:11:03
(UTC+00:00)

Cosmos 2112 Rocket - Pass Details

Date: 15 November 2019
Orbit: 755 x 788 km, 74.1° (Epoch: 07 December)

Event Time Altitude Azimuth Distance (km) Brightness Sun altitude
Rises 01:47:32 0° 179° (S) 3,192 7.4 -12.6°
Reaches altitude 10° 01:49:58 10° 173° (S) 2,272 6.5 -13.1°
Maximum altitude 01:54:50 44° 102° (ESE) 1,035 4.3 -14.1°
Enters shadow 01:59:23 12° 32° (NNE) 2,163 5.9 -15.0°
